Regional Weather Roundup
Issued by NWS

Home | Current Version | Previous Version | Graphics & Text | Print | Product List | Glossary Off
Versions: 1 2 3 4 5 6 7 8 9 10 11 12 13 14 15 16 17 18 19 20 21 22 23 24 25 26 27 28 29 30 31 32 33 34 35 36 37 38 39 40 41 42 43 44 45 46 47 48 49 50

298
ASUS43 KMKX 200059
RWRWI

WISCONSIN REGIONAL WEATHER ROUNDUP
NATIONAL WEATHER SERVICE MILWAUKEE/SULLIVAN WI
700 PM CST THU JAN 19 2017

NOTE: "FAIR" INDICATES FEW OR NO CLOUDS BELOW 12,000 FEET WITH NO
SIGNIFICANT WEATHER AND/OR OBSTRUCTIONS TO VISIBILITY.

WIZ001-002-006>008-014>016-023>028-200200-
NORTHWEST WISCONSIN

CITY           SKY/WX    TMP DP  RH WIND       PRES   REMARKS
SUPERIOR ARPT    N/A     31  31  99 CALM      29.77R FOG
ASHLAND        CLEAR     37  31  78 SW5       29.78S WCI  33
HAYWARD        PTCLDY    30  28  92 CALM      29.78S FOG
SIREN          CLOUDY    39  32  75 SE6       29.77S
CUMBERLAND     CLOUDY    34  32  93 SE5       29.77F WCI  30
RICE LAKE      CLOUDY    37  32  84 SE5       29.79F WCI  33
CHETEK         NOT AVBL
LADYSMITH      CLOUDY    37  32  84 SE6       29.81S WCI  32
EAU CLAIRE     NOT AVBL
MENOMONIE        N/A    N/A N/A N/A MISG        N/A
NEW RICHMOND   CLOUDY    36  31  85 SE3       29.77F
OSCEOLA        CLOUDY    37  32  82 SE7       29.79S WCI  32
$$

WIZ003>005-009-010-017-018-200200-
NORTH CENTRAL WISCONSIN

CITY           SKY/WX    TMP DP  RH WIND       PRES   REMARKS
MANITOWISH WTR NOT AVBL
ARBOR VITAE    CLEAR     37  33  85 S5        29.80S WCI  33
WOODRUFF       CLEAR     37  33  85 S5        29.80S WCI  33
RHINELANDER    MOCLDY    35  32  88 S3        29.81F
EAGLE RIVER    CLEAR     33  29  83 CALM      29.80R
LAND O LAKES   CLEAR     33  31  94 S3        29.81R
PHILLIPS       CLEAR     34  31  87 S7        29.79F WCI  28
TOMAHAWK       CLOUDY    32  31  95 CALM      29.82F FOG
MEDFORD        FOG       31  30  98 SE3       29.80F VSB 3/4
MERRILL        CLOUDY    32  32 100 SE3         N/A  FOG
$$

WIZ029-030-035-036-043>047-200200-
CENTRAL WISCONSIN

CITY           SKY/WX    TMP DP  RH WIND       PRES   REMARKS
WAUSAU         CLOUDY    31  31 100 E7        29.81F FOG     WCI  24
MOSINEE        FOG       32  32 100 NE9       29.82F VSB 1/4 WCI  24
MARSHFIELD     PTCLDY    31  30  96 NE6       29.79F FOG     WCI  25
STEVENS POINT  PTCLDY    31  31 100 NE5       29.82F FOG     WCI  26
WAUPACA        CLOUDY    33  32  94 CALM      29.85F FOG
WAUTOMA        CLOUDY    32  31  96 CALM      29.84F FOG
WISC RAPIDS    CLOUDY    34  32  92 E3        29.82F
CAMP DOUGLAS   NOT AVBL
$$

WIZ011>013-019>022-031-037>040-048>050-200200-
NORTHEAST WISCONSIN

CITY           SKY/WX    TMP DP  RH WIND       PRES   REMARKS
ANTIGO         FOG       30  30 100 S5        29.83F VSB 1/2 WCI  25
SHAWANO        CLOUDY    33  32  96 CALM      29.87F FOG
OCONTO         CLOUDY    32  31  96 CALM      29.87F
STURGEON BAY   FOG       32  31  96 S3        29.88F VSB 1/2
GREEN BAY      FOG       33  33 100 CALM      29.87S VSB 1/4
MANITOWOC      NOT AVBL
APPLETON       FOG       30  30 100 NE5       29.83F VSB 1/4 WCI  25
CLINTONVILLE   FOG       32  32 100 CALM      29.86S VSB 1/2
OSHKOSH        FOG       33  31  92 CALM      29.85S VSB 1/4
$$

WIZ032>034-041-042-053>061-200200-
SOUTHWEST WISCONSIN

CITY           SKY/WX    TMP DP  RH WIND       PRES   REMARKS
LA CROSSE      CLOUDY    39  34  82 E8        29.78F WCI  33
SPARTA         RAIN      36  33  91 SE5       29.81F WCI  32
VIROQUA        CLOUDY    34  34 100 CALM      29.77F
BOSCOBEL       LGT RAIN  37  35  92 NE3       29.79F FOG
PRAIRIE DU CHI LGT RAIN  36  35  96 CALM      29.78F
PLATTEVILLE    CLOUDY    35  35 100 E8        29.79F WCI  28
$$

WIZ056-057-062-063-064-067-068-200200-
SOUTH CENTRAL WISCONSIN

CITY           SKY/WX    TMP DP  RH WIND       PRES   REMARKS
REEDSBURG      LGT RAIN  35  35 100 CALM      29.81F
BARABOO/DELLS  LGT RAIN  34  33  95 E6        29.82S WCI  29
LONE ROCK      NOT AVBL
MINERAL POINT  LGT RAIN  36  36 100 E5        29.78F WCI  32
MADISON        LGT RAIN  35  34  96 E3        29.82F FOG
MIDDLETON      CLOUDY    36  36 100 CALM      29.83F
WATERTOWN      DRIZZLE   35  35 100 CALM      29.83F
MONROE         LGT RAIN  34  34 100 NE5       29.79F VSB 1/4 WCI  30
JANESVILLE     LGT RAIN  37  37 100 E9        29.79F FOG     WCI  31
$$

WIZ051-052-058>065-066-070>072-200200-
SOUTHEAST WISCONSIN

CITY           SKY/WX    TMP DP  RH WIND       PRES   REMARKS
MILWAUKEE      LGT RAIN  36  35  96 E5        29.84F VSB 1/8 WCI  32
WAUKESHA       LGT RAIN  34  34 100 E7        29.84F WCI  28
MILWAUKEE/TIMM DRIZZLE   36  32  87 CALM      29.85F FOG
RACINE         FOG       36  35  96 E5        29.85F VSB 1   WCI  32
KENOSHA        LGT RAIN  37  35  92 E10       29.83F FOG     WCI  30
FOND DU LAC    CLOUDY    34  31  88 E6        29.84F FOG     WCI  29
SHEBOYGAN      FOG       32  31  96 CALM      29.86F VSB 1/4
WEST BEND      DRIZZLE   32  32 100 E3        29.86S
JUNEAU         CLOUDY    33  33  98 NE3       29.84F FOG
$$

LSZ147-162-200200-
LAKE SUPERIOR

STATION/POSITION TIME  TEMP    WIND        PRES    WAVE
                       AIR SEA DIR/SP/G            HT/PER
                 (UTC) (F)     (DEG/KT/KT) (MB)    (FT/S)
DEVILS ISLAND    0000   34     100/  8/  8 1008.7R
PORT WING        0040   29     170/  3/  4 1008.1S
SAXON HARBOR     0040   33     200/  3/  3 1008.1S
$$

LMZ867-665-643>646-200200-
LAKE MICHIGAN

STATION/POSITION TIME  TEMP    WIND        PRES    WAVE
                       AIR SEA DIR/SP/G            HT/PER
                 (UTC) (F)     (DEG/KT/KT) (MB)    (FT/S)
NORTHPORT PIER   0040   33      CALM  /  5 1012.2F
SISTER BAY       0020   33     200/ 10/ 11   N/A
ALGOMA LAKESHORE 2339          220/  8/ 10   N/A
KEWAUNEE LAKESHO 0030   33     210/  2/  4 1011.3F
SHEBOYGAN LAKESH 0000   34     190/  5/  5 1012.3R
PORT WASHINGTON  0030   35     190/  5/  6 1012.9S
MILWAUKEE LAKESH 0030   34     110/  1/  1   N/A
KENOSHA   LAKESH 0000   35     110/  5/  8 1011.2
$$

TC  - TEMPERATURE IN CELSIUS
VSB - VISIBILITY IN STATUTE MILES
WCI - WIND CHILL INDEX
HX  - HEAT INDEX





USA.gov is the U.S. government's official web portal to all federal, state and local government web resources and services.